This demonstration page uses our WeatherBlox Daily Observations layout. Learn more.

39.92423, -83.80882

Hourly Observations for August 11, 2018

Temp ( °F °C ) Dew Point ( °F °C ) Humidity (%) Winds ( mph kmh ) Pressure ( in mb ) Visibility ( mi km ) Precip ( " mm )
12:56 am 00:56 Clear 67 19.4 67 19.4 100 100 S 5 7 29.95 1014 10 16.0934 0 0.0254
1:56 am 01:56 Mostly Clear with Mist and Fog 67 19.4 67 19.4 100 100 Calm 29.95 1014 6 9.65604 0.01 0.254
2:19 am 02:19 Mostly Cloudy 66 19 66 19 100 100 Calm 29.94 1014 7 11.26538 0 0
2:56 am 02:56 Clear 67 19.4 67 19.4 100 100 SW 3 6 29.94 1014 10 16.0934 0 0
3:56 am 03:56 Clear with Mist and Fog 66 18.9 66 18.9 100 100 SW 5 7 29.93 1013 5 8.0467 0 0
4:56 am 04:56 Clear 65 18.3 65 18.3 100 100 SW 6 9 29.93 1013 7 11.26538 0 0
5:56 am 05:56 Mostly Clear with Mist and Fog 65 18.3 65 18.3 100 100 S 3 6 29.92 1013 5 8.0467 0 0
6:56 am 06:56 Mostly Cloudy with Mist and Fog 65 18.3 65 18.3 100 100 ENE 3 6 29.94 1014 4 6.43736 0 0
7:56 am 07:56 Mostly Cloudy 67 19.4 67 19.4 100 100 E 3 6 29.95 1014 7 11.26538 0 0
8:46 am 08:46 Cloudy 68 20 68 20 100 100 E 5 7 29.97 1015 10 16.0934 0 0
8:56 am 08:56 Cloudy 68 20 68 20 100 100 ESE 6 9 29.98 1015 9 14.48406 0 0
9:56 am 09:56 Cloudy 71 21.7 69 20.6 94 94 SE 6 9 29.99 1016 10 16.0934 0 0
10:10 am 10:10 Cloudy 72 22 70 21 94 94 SE 5 7 29.97 1015 10 16.0934 0 0
10:56 am 10:56 Cloudy 71 21.7 69 20.6 94 94 ESE 3 6 29.99 1016 10 16.0934 0 0.0254
11:56 am 11:56 Cloudy 72 22.2 69 20.6 91 91 SSE 5 7 30.02 1017 10 16.0934 0 0
12:56 pm 12:56 Cloudy 73 22.8 69 20.6 87 87 Calm 30.01 1016 10 16.0934 0.01 0.254
1:16 pm 13:16 Cloudy 73 23 70 21 89 89 E 3 6 30 1016 10 16.0934 0 0
1:49 pm 13:49 Cloudy 73 23 70 21 89 89 ENE 8 13 30 1016 10 16.0934 0 0
1:56 pm 13:56 Cloudy 73 22.8 70 21.1 90 90 E 7 11 30.01 1016 10 16.0934 0 0
2:11 pm 14:11 Cloudy 73 23 70 21 89 89 E 8 13 30 1016 10 16.0934 0 0
2:23 pm 14:23 Cloudy 73 23 70 21 89 89 E 6 9 29.97 1015 10 16.0934 0 0
2:46 pm 14:46 Cloudy 75 24 70 21 83 83 E 6 9 29.97 1015 10 16.0934 0 0.0254
2:56 pm 14:56 Mostly Cloudy 76 24.4 71 21.7 85 85 ENE 6 9 29.98 1015 10 16.0934 0 0.0254
3:12 pm 15:12 Mostly Cloudy 77 25 72 22 83 83 ENE 8 13 29.97 1015 10 16.0934 0 0
3:44 pm 15:44 Partly Cloudy 79 26 72 22 79 79 NE 9 15 29.94 1014 10 16.0934 0 0
3:56 pm 15:56 Partly Cloudy 78 25.6 70 21.1 76 76 E 9 15 29.98 1015 10 16.0934 0 0
4:53 pm 16:53 Mostly Cloudy 77 25 70 21 79 79 ENE 10 17 29.91 1013 10 16.0934 0 0
4:56 pm 16:56 Mostly Cloudy 77 25 70 21.1 79 79 ENE 9 15 29.97 1015 10 16.0934 0 0
5:09 pm 17:09 Partly Cloudy 77 25 70 21 79 79 E 9 15 29.91 1013 10 16.0934 0 0
5:56 pm 17:56 Partly Cloudy 77 25 69 20.6 77 77 ENE 10 17 29.97 1015 10 16.0934 0 0
6:56 pm 18:56 Mostly Sunny 76 24.4 68 20 77 77 E 7 11 29.98 1015 10 16.0934 0 0
7:56 pm 19:56 Sunny 74 23.3 67 19.4 79 79 E 5 7 29.99 1016 10 16.0934 0 0
8:56 pm 20:56 Clear 70 21.1 67 19.4 90 90 Calm 30.01 1016 7 11.26538 0 0
9:56 pm 21:56 Clear 68 20 65 18.3 90 90 Calm 30.01 1016 10 16.0934 0 0
10:56 pm 22:56 Clear 65 18.3 65 18.3 100 100 Calm 30.02 1017 10 16.0934 0 0
11:56 pm 23:56 Clear 65 18.3 65 18.3 100 100 Calm 30.04 1017 10 16.0934 0 0

Powered by AerisWeather